GEFSGL_prec_meanprecacc_066.txt.gz
Total_Precipitation_Accumulation
0.85 0.80 0.72 0.70 0.65 0.60 0.55 0.52 0.44 0.36 0.31 0.28 0.26 0.24 0.20 0.17 0.16 0.15 0.15 0.14 0.15 0.16 0.17 0.17 0.18 0.18 0.18 0.16 0.16 0.15 0.14 0.17 0.21 0.21 0.18 0.17 0.18 0.18 0.17 0.16 0.15 0.15 0.13
0.48 0.45 0.41 0.40 0.39 0.38 0.36 0.34 0.32 0.31 0.29 0.27 0.25 0.23 0.22 0.21 0.20 0.19 0.19 0.19 0.19 0.19 0.19 0.18 0.18 0.17 0.18 0.17 0.17 0.16 0.16 0.17 0.19 0.19 0.16 0.14 0.13 0.13 0.14 0.16 0.13 0.11 0.12
0.30 0.30 0.30 0.30 0.31 0.32 0.33 0.34 0.33 0.32 0.30 0.28 0.26 0.26 0.25 0.24 0.23 0.22 0.21 0.20 0.18 0.16 0.15 0.14 0.13 0.12 0.12 0.11 0.10 0.09 0.09 0.09 0.12 0.15 0.13 0.11 0.10 0.11 0.15 0.16 0.15 0.18 0.13
0.23 0.23 0.23 0.24 0.25 0.27 0.28 0.28 0.28 0.29 0.30 0.31 0.30 0.28 0.26 0.23 0.19 0.16 0.13 0.11 0.09 0.08 0.07 0.06 0.05 0.05 0.07 0.08 0.08 0.08 0.09 0.11 0.13 0.16 0.16 0.14 0.13 0.12 0.20 0.21 0.17 0.17 0.15
0.26 0.27 0.27 0.27 0.27 0.28 0.30 0.31 0.31 0.29 0.27 0.23 0.20 0.16 0.13 0.09 0.07 0.05 0.04 0.03 0.03 0.02 0.02 0.02 0.02 0.03 0.05 0.06 0.06 0.08 0.13 0.16 0.18 0.20 0.19 0.15 0.13 0.17 0.22 0.22 0.19 0.14 0.09
0.39 0.40 0.40 0.39 0.38 0.36 0.33 0.29 0.25 0.21 0.16 0.12 0.09 0.06 0.05 0.03 0.02 0.01 0.01 0.01 0.01 0.02 0.02 0.02 0.02 0.02 0.02 0.02 0.05 0.10 0.16 0.19 0.20 0.21 0.20 0.21 0.19 0.22 0.25 0.23 0.23 0.22 0.18
0.49 0.50 0.49 0.45 0.39 0.31 0.22 0.16 0.13 0.10 0.08 0.06 0.04 0.03 0.03 0.01 0.00 0.00 0.00 0.00 0.02 0.03 0.04 0.04 0.03 0.02 0.03 0.05 0.06 0.07 0.08 0.09 0.15 0.23 0.26 0.26 0.27 0.29 0.32 0.29 0.30 0.32 0.26
0.51 0.49 0.43 0.35 0.27 0.18 0.12 0.09 0.08 0.07 0.06 0.04 0.03 0.03 0.04 0.02 0.00 0.00 0.00 0.00 0.02 0.03 0.04 0.04 0.05 0.05 0.06 0.06 0.04 0.05 0.08 0.13 0.13 0.16 0.24 0.25 0.25 0.26 0.30 0.31 0.32 0.33 0.27
0.43 0.34 0.25 0.17 0.12 0.08 0.07 0.07 0.06 0.05 0.04 0.03 0.03 0.04 0.07 0.05 0.01 0.00 0.00 0.01 0.03 0.03 0.04 0.03 0.04 0.07 0.07 0.07 0.05 0.08 0.13 0.18 0.12 0.10 0.16 0.22 0.25 0.28 0.29 0.31 0.41 0.47 0.38
0.20 0.13 0.10 0.07 0.05 0.05 0.05 0.05 0.04 0.04 0.04 0.04 0.04 0.05 0.07 0.08 0.02 0.00 0.00 0.01 0.02 0.02 0.05 0.08 0.06 0.06 0.05 0.05 0.04 0.11 0.19 0.21 0.20 0.24 0.31 0.35 0.37 0.45 0.44 0.42 0.49 0.53 0.48
0.07 0.05 0.04 0.03 0.02 0.02 0.03 0.03 0.03 0.04 0.06 0.06 0.07 0.07 0.08 0.04 0.01 0.00 0.00 0.00 0.01 0.02 0.08 0.15 0.16 0.08 0.05 0.05 0.06 0.11 0.18 0.16 0.22 0.36 0.43 0.43 0.44 0.48 0.48 0.44 0.47 0.51 0.55
0.03 0.03 0.03 0.02 0.01 0.01 0.03 0.04 0.04 0.06 0.08 0.09 0.09 0.09 0.09 0.07 0.03 0.01 0.00 0.00 0.00 0.03 0.13 0.18 0.17 0.09 0.07 0.09 0.11 0.14 0.16 0.23 0.35 0.47 0.48 0.46 0.43 0.42 0.42 0.39 0.42 0.48 0.54
0.06 0.05 0.03 0.03 0.02 0.02 0.04 0.05 0.06 0.08 0.08 0.06 0.07 0.08 0.09 0.09 0.06 0.00 0.00 0.00 0.01 0.04 0.11 0.11 0.12 0.13 0.15 0.25 0.23 0.21 0.27 0.40 0.48 0.50 0.50 0.48 0.40 0.35 0.32 0.31 0.34 0.43 0.51
0.12 0.08 0.05 0.05 0.05 0.05 0.06 0.05 0.06 0.08 0.06 0.06 0.08 0.08 0.09 0.09 0.05 0.02 0.02 0.04 0.05 0.08 0.10 0.14 0.22 0.28 0.31 0.38 0.42 0.46 0.48 0.48 0.44 0.48 0.47 0.40 0.30 0.26 0.26 0.28 0.33 0.37 0.44
0.14 0.09 0.05 0.04 0.06 0.07 0.09 0.06 0.04 0.05 0.01 0.02 0.04 0.04 0.05 0.05 0.03 0.02 0.02 0.02 0.03 0.04 0.07 0.17 0.33 0.39 0.45 0.48 0.51 0.55 0.57 0.51 0.45 0.43 0.42 0.38 0.31 0.29 0.26 0.25 0.28 0.31 0.36
0.11 0.07 0.04 0.03 0.05 0.06 0.09 0.10 0.04 0.01 0.00 0.00 0.00 0.01 0.02 0.02 0.02 0.02 0.02 0.02 0.04 0.07 0.13 0.27 0.34 0.37 0.42 0.42 0.42 0.45 0.50 0.50 0.43 0.38 0.38 0.35 0.30 0.29 0.29 0.28 0.28 0.31 0.36
0.06 0.03 0.02 0.03 0.04 0.06 0.08 0.14 0.16 0.07 0.01 0.01 0.01 0.01 0.02 0.02 0.02 0.02 0.03 0.05 0.08 0.15 0.24 0.32 0.34 0.37 0.40 0.37 0.36 0.41 0.45 0.41 0.35 0.32 0.31 0.28 0.26 0.24 0.25 0.27 0.26 0.26 0.27
0.03 0.01 0.01 0.03 0.03 0.04 0.05 0.07 0.10 0.14 0.14 0.09 0.04 0.02 0.02 0.03 0.04 0.05 0.08 0.13 0.21 0.26 0.31 0.31 0.32 0.34 0.37 0.37 0.33 0.32 0.32 0.27 0.24 0.24 0.24 0.22 0.21 0.22 0.22 0.23 0.20 0.17 0.20
0.01 0.02 0.02 0.01 0.01 0.02 0.03 0.03 0.03 0.06 0.11 0.14 0.11 0.06 0.05 0.09 0.11 0.13 0.16 0.20 0.26 0.26 0.26 0.26 0.28 0.28 0.29 0.32 0.28 0.24 0.21 0.18 0.16 0.16 0.17 0.18 0.18 0.17 0.17 0.16 0.13 0.09 0.13
0.01 0.01 0.01 0.00 0.00 0.01 0.01 0.01 0.01 0.03 0.06 0.09 0.09 0.06 0.07 0.15 0.22 0.22 0.21 0.20 0.20 0.20 0.22 0.24 0.22 0.19 0.21 0.21 0.17 0.16 0.16 0.14 0.12 0.11 0.12 0.12 0.12 0.13 0.12 0.10 0.09 0.09 0.09
0.01 0.01 0.00 0.00 0.00 0.00 0.00 0.00 0.01 0.01 0.03 0.04 0.04 0.04 0.08 0.15 0.23 0.24 0.22 0.18 0.16 0.17 0.20 0.20 0.18 0.16 0.15 0.14 0.12 0.10 0.09 0.09 0.09 0.11 0.10 0.08 0.07 0.07 0.06 0.04 0.04 0.04 0.04
0.00 0.00 0.00 0.00 0.00 0.00 0.00 0.00 0.01 0.01 0.02 0.03 0.04 0.05 0.09 0.15 0.21 0.24 0.24 0.20 0.16 0.16 0.17 0.16 0.14 0.13 0.11 0.11 0.10 0.08 0.06 0.06 0.07 0.11 0.10 0.07 0.05 0.04 0.02 0.02 0.02 0.02 0.02
0.00 0.00 0.00 0.00 0.00 0.00 0.00 0.00 0.00 0.01 0.01 0.02 0.03 0.05 0.08 0.15 0.20 0.22 0.21 0.16 0.12 0.11 0.12 0.12 0.11 0.09 0.07 0.06 0.05 0.04 0.03 0.03 0.05 0.08 0.09 0.05 0.03 0.03 0.02 0.02 0.02 0.02 0.01
0.00 0.00 0.00 0.00 0.00 0.00 0.00 0.00 0.00 0.00 0.01 0.02 0.03 0.04 0.05 0.10 0.14 0.16 0.17 0.14 0.10 0.09 0.08 0.07 0.07 0.05 0.04 0.03 0.02 0.01 0.01 0.01 0.02 0.03 0.05 0.04 0.03 0.02 0.02 0.02 0.02 0.02 0.02
0.00 0.00 0.00 0.00 0.00 0.00 0.00 0.00 0.00 0.00 0.01 0.01 0.02 0.03 0.03 0.04 0.05 0.07 0.09 0.10 0.10 0.08 0.06 0.04 0.03 0.02 0.01 0.01 0.01 0.00 0.00 0.01 0.00 0.01 0.02 0.02 0.01 0.01 0.01 0.01 0.01 0.02 0.03
0.00 0.00 0.00 0.00 0.00 0.00 0.00 0.00 0.01 0.01 0.01 0.01 0.02 0.03 0.02 0.02 0.02 0.03 0.04 0.06 0.07 0.06 0.06 0.04 0.02 0.01 0.00 0.00 0.00 0.01 0.01 0.01 0.01 0.01 0.01 0.02 0.01 0.01 0.01 0.01 0.01 0.02 0.02

GEFSGL_prec_meanprecacc_072.txt.gz
Total_Precipitation_Accumulation
0.92 0.89 0.81 0.78 0.72 0.68 0.62 0.58 0.50 0.42 0.37 0.33 0.29 0.26 0.23 0.20 0.17 0.15 0.15 0.15 0.15 0.16 0.17 0.17 0.18 0.18 0.18 0.16 0.16 0.15 0.14 0.17 0.21 0.22 0.20 0.19 0.20 0.21 0.20 0.19 0.18 0.19 0.18
0.52 0.48 0.46 0.46 0.45 0.44 0.42 0.39 0.36 0.35 0.32 0.29 0.27 0.24 0.22 0.21 0.21 0.20 0.20 0.19 0.19 0.19 0.19 0.18 0.18 0.17 0.18 0.17 0.17 0.16 0.16 0.18 0.20 0.20 0.18 0.15 0.16 0.16 0.16 0.17 0.15 0.13 0.15
0.33 0.33 0.33 0.34 0.35 0.36 0.37 0.37 0.35 0.34 0.32 0.29 0.27 0.27 0.26 0.25 0.23 0.22 0.21 0.20 0.18 0.16 0.15 0.14 0.13 0.12 0.12 0.11 0.10 0.09 0.09 0.09 0.13 0.16 0.15 0.13 0.12 0.13 0.17 0.18 0.17 0.21 0.15
0.25 0.25 0.25 0.26 0.28 0.30 0.30 0.30 0.30 0.30 0.32 0.32 0.31 0.29 0.26 0.23 0.19 0.16 0.13 0.11 0.09 0.08 0.07 0.06 0.05 0.05 0.07 0.08 0.08 0.08 0.09 0.11 0.13 0.17 0.17 0.15 0.14 0.13 0.22 0.23 0.19 0.20 0.17
0.30 0.30 0.29 0.28 0.28 0.29 0.30 0.32 0.31 0.30 0.27 0.24 0.20 0.16 0.13 0.10 0.07 0.05 0.04 0.03 0.03 0.02 0.02 0.02 0.02 0.03 0.05 0.06 0.06 0.08 0.13 0.17 0.18 0.21 0.19 0.16 0.14 0.19 0.24 0.24 0.21 0.17 0.13
0.42 0.43 0.43 0.41 0.40 0.38 0.34 0.30 0.26 0.21 0.16 0.12 0.09 0.07 0.05 0.03 0.02 0.01 0.01 0.01 0.01 0.02 0.02 0.02 0.02 0.02 0.02 0.02 0.05 0.10 0.16 0.19 0.20 0.22 0.21 0.22 0.21 0.25 0.27 0.25 0.25 0.26 0.22
0.52 0.51 0.51 0.46 0.41 0.32 0.23 0.16 0.13 0.10 0.08 0.06 0.05 0.03 0.03 0.01 0.00 0.00 0.00 0.00 0.02 0.03 0.04 0.04 0.03 0.02 0.03 0.05 0.06 0.07 0.09 0.09 0.15 0.23 0.28 0.28 0.30 0.32 0.35 0.32 0.34 0.35 0.31
0.54 0.50 0.44 0.36 0.28 0.19 0.13 0.10 0.08 0.07 0.06 0.05 0.03 0.03 0.04 0.02 0.00 0.00 0.00 0.01 0.03 0.04 0.04 0.04 0.05 0.06 0.06 0.06 0.04 0.05 0.09 0.13 0.14 0.16 0.25 0.27 0.27 0.28 0.32 0.33 0.35 0.36 0.33
0.47 0.36 0.26 0.18 0.13 0.09 0.07 0.07 0.07 0.06 0.05 0.04 0.03 0.05 0.07 0.05 0.01 0.00 0.00 0.01 0.03 0.03 0.04 0.03 0.04 0.07 0.07 0.07 0.06 0.10 0.16 0.20 0.12 0.10 0.16 0.22 0.25 0.28 0.29 0.33 0.44 0.53 0.46
0.24 0.15 0.11 0.08 0.06 0.05 0.05 0.05 0.05 0.05 0.05 0.04 0.04 0.05 0.07 0.08 0.02 0.00 0.00 0.01 0.02 0.03 0.05 0.08 0.06 0.06 0.05 0.05 0.05 0.12 0.21 0.23 0.21 0.25 0.33 0.37 0.40 0.47 0.45 0.44 0.54 0.59 0.54
0.10 0.07 0.06 0.04 0.03 0.03 0.03 0.04 0.04 0.05 0.06 0.06 0.07 0.07 0.08 0.04 0.01 0.00 0.00 0.00 0.01 0.02 0.08 0.15 0.16 0.08 0.05 0.05 0.07 0.12 0.19 0.17 0.23 0.38 0.45 0.46 0.47 0.52 0.51 0.46 0.50 0.56 0.61
0.05 0.05 0.04 0.03 0.01 0.02 0.04 0.05 0.05 0.06 0.09 0.09 0.10 0.10 0.09 0.07 0.03 0.01 0.00 0.00 0.00 0.04 0.13 0.18 0.17 0.09 0.07 0.10 0.11 0.15 0.17 0.23 0.37 0.48 0.50 0.49 0.46 0.46 0.46 0.42 0.45 0.51 0.57
0.07 0.06 0.04 0.03 0.03 0.03 0.04 0.06 0.07 0.08 0.08 0.06 0.08 0.09 0.09 0.09 0.06 0.00 0.00 0.00 0.01 0.04 0.11 0.11 0.12 0.13 0.15 0.25 0.24 0.21 0.27 0.41 0.49 0.52 0.53 0.50 0.43 0.38 0.35 0.34 0.37 0.47 0.54
0.13 0.09 0.06 0.06 0.06 0.06 0.06 0.05 0.06 0.08 0.06 0.06 0.08 0.08 0.09 0.09 0.05 0.02 0.02 0.04 0.05 0.08 0.10 0.14 0.22 0.28 0.31 0.38 0.42 0.47 0.49 0.49 0.45 0.49 0.49 0.42 0.32 0.29 0.30 0.31 0.35 0.40 0.48
0.15 0.10 0.06 0.05 0.06 0.08 0.09 0.06 0.04 0.05 0.01 0.02 0.04 0.04 0.05 0.05 0.03 0.02 0.02 0.02 0.03 0.05 0.07 0.18 0.33 0.40 0.46 0.49 0.52 0.56 0.58 0.52 0.46 0.44 0.44 0.40 0.33 0.31 0.28 0.26 0.30 0.34 0.40
0.14 0.09 0.05 0.04 0.05 0.06 0.09 0.10 0.04 0.01 0.00 0.00 0.00 0.01 0.02 0.02 0.02 0.02 0.02 0.02 0.04 0.07 0.13 0.27 0.34 0.38 0.42 0.43 0.43 0.46 0.51 0.50 0.44 0.39 0.39 0.36 0.32 0.30 0.30 0.29 0.29 0.33 0.39
0.09 0.06 0.03 0.03 0.04 0.06 0.08 0.14 0.16 0.07 0.01 0.01 0.01 0.01 0.02 0.02 0.02 0.02 0.03 0.05 0.08 0.15 0.24 0.33 0.35 0.37 0.40 0.38 0.36 0.41 0.45 0.42 0.35 0.33 0.32 0.29 0.27 0.25 0.26 0.28 0.27 0.27 0.28
0.04 0.02 0.02 0.03 0.04 0.05 0.05 0.07 0.11 0.15 0.14 0.09 0.04 0.02 0.02 0.03 0.04 0.05 0.08 0.13 0.21 0.26 0.31 0.31 0.32 0.34 0.37 0.37 0.33 0.32 0.32 0.27 0.24 0.24 0.25 0.22 0.21 0.22 0.23 0.24 0.21 0.18 0.21
0.02 0.03 0.03 0.02 0.01 0.02 0.03 0.03 0.03 0.06 0.12 0.15 0.12 0.06 0.05 0.09 0.11 0.13 0.16 0.21 0.26 0.27 0.26 0.26 0.28 0.28 0.29 0.32 0.28 0.24 0.21 0.18 0.16 0.16 0.17 0.18 0.18 0.18 0.18 0.17 0.14 0.10 0.13
0.02 0.02 0.02 0.01 0.01 0.01 0.01 0.01 0.01 0.03 0.07 0.10 0.10 0.06 0.07 0.15 0.23 0.23 0.21 0.20 0.20 0.20 0.22 0.24 0.22 0.19 0.21 0.21 0.17 0.16 0.16 0.14 0.12 0.11 0.12 0.12 0.12 0.13 0.12 0.10 0.10 0.09 0.10
0.01 0.01 0.00 0.00 0.00 0.00 0.01 0.01 0.01 0.02 0.04 0.05 0.05 0.04 0.09 0.16 0.24 0.24 0.22 0.19 0.16 0.18 0.21 0.20 0.18 0.16 0.15 0.14 0.12 0.10 0.09 0.09 0.09 0.11 0.10 0.08 0.07 0.07 0.06 0.04 0.04 0.04 0.04
0.00 0.00 0.00 0.00 0.00 0.00 0.00 0.01 0.01 0.01 0.02 0.04 0.04 0.05 0.09 0.16 0.21 0.25 0.25 0.20 0.16 0.16 0.17 0.16 0.14 0.13 0.11 0.11 0.10 0.08 0.06 0.06 0.07 0.11 0.10 0.07 0.05 0.04 0.02 0.02 0.02 0.02 0.02
0.00 0.00 0.00 0.00 0.00 0.00 0.00 0.00 0.00 0.01 0.02 0.02 0.04 0.05 0.08 0.15 0.20 0.23 0.21 0.17 0.12 0.11 0.12 0.12 0.11 0.09 0.07 0.06 0.05 0.04 0.03 0.03 0.05 0.08 0.09 0.05 0.03 0.03 0.02 0.02 0.02 0.02 0.01
0.00 0.00 0.00 0.00 0.00 0.00 0.00 0.00 0.00 0.00 0.01 0.02 0.03 0.04 0.05 0.11 0.15 0.16 0.17 0.14 0.10 0.09 0.08 0.07 0.07 0.05 0.04 0.03 0.02 0.01 0.01 0.01 0.02 0.03 0.05 0.04 0.03 0.02 0.02 0.02 0.02 0.02 0.02
0.00 0.00 0.00 0.00 0.00 0.00 0.00 0.00 0.00 0.00 0.01 0.01 0.02 0.03 0.03 0.04 0.06 0.07 0.09 0.10 0.10 0.08 0.06 0.04 0.03 0.02 0.01 0.01 0.01 0.00 0.00 0.01 0.00 0.01 0.02 0.02 0.01 0.01 0.01 0.01 0.01 0.02 0.03
0.00 0.00 0.00 0.00 0.00 0.00 0.00 0.00 0.01 0.01 0.01 0.01 0.02 0.03 0.02 0.02 0.02 0.03 0.04 0.06 0.07 0.06 0.06 0.04 0.02 0.01 0.00 0.00 0.00 0.01 0.01 0.01 0.01 0.01 0.01 0.02 0.01 0.01 0.01 0.01 0.01 0.02 0.02

GEFSGL_prec_meanprecacc_078.txt.gz
Total_Precipitation_Accumulation
0.98 0.95 0.87 0.82 0.77 0.72 0.66 0.62 0.53 0.46 0.40 0.36 0.33 0.30 0.27 0.24 0.22 0.20 0.19 0.17 0.17 0.18 0.18 0.18 0.19 0.19 0.18 0.17 0.16 0.16 0.15 0.18 0.23 0.23 0.21 0.20 0.21 0.22 0.21 0.19 0.19 0.20 0.19
0.57 0.52 0.50 0.49 0.48 0.47 0.45 0.42 0.39 0.37 0.34 0.32 0.29 0.27 0.25 0.24 0.23 0.22 0.21 0.21 0.20 0.21 0.20 0.19 0.18 0.17 0.18 0.18 0.17 0.17 0.17 0.19 0.21 0.21 0.18 0.16 0.16 0.16 0.17 0.18 0.15 0.14 0.15
0.36 0.35 0.35 0.37 0.38 0.39 0.41 0.41 0.39 0.37 0.35 0.32 0.29 0.28 0.27 0.26 0.24 0.22 0.21 0.20 0.18 0.17 0.16 0.15 0.13 0.12 0.12 0.11 0.11 0.10 0.09 0.10 0.13 0.16 0.15 0.13 0.12 0.13 0.18 0.18 0.17 0.21 0.15
0.28 0.27 0.27 0.28 0.30 0.32 0.33 0.32 0.32 0.33 0.34 0.34 0.32 0.30 0.27 0.23 0.20 0.16 0.14 0.12 0.10 0.08 0.07 0.06 0.05 0.05 0.07 0.08 0.08 0.08 0.09 0.11 0.13 0.17 0.17 0.15 0.14 0.14 0.23 0.25 0.21 0.21 0.18
0.32 0.32 0.31 0.30 0.30 0.32 0.33 0.33 0.33 0.31 0.28 0.25 0.21 0.17 0.13 0.10 0.08 0.06 0.04 0.04 0.03 0.02 0.02 0.02 0.02 0.03 0.05 0.06 0.06 0.08 0.13 0.17 0.18 0.21 0.20 0.18 0.16 0.21 0.26 0.26 0.23 0.19 0.16
0.45 0.45 0.45 0.43 0.42 0.40 0.36 0.31 0.27 0.22 0.16 0.12 0.09 0.07 0.05 0.03 0.02 0.02 0.01 0.01 0.02 0.02 0.02 0.03 0.02 0.03 0.02 0.02 0.05 0.10 0.16 0.19 0.20 0.23 0.23 0.25 0.25 0.27 0.29 0.27 0.28 0.29 0.28
0.56 0.55 0.54 0.49 0.43 0.34 0.25 0.18 0.14 0.11 0.09 0.07 0.05 0.03 0.03 0.01 0.00 0.00 0.00 0.01 0.02 0.03 0.04 0.05 0.03 0.02 0.03 0.05 0.06 0.07 0.09 0.10 0.15 0.23 0.30 0.31 0.33 0.35 0.37 0.35 0.37 0.39 0.37
0.58 0.53 0.48 0.39 0.30 0.22 0.15 0.12 0.10 0.09 0.07 0.05 0.04 0.04 0.04 0.02 0.00 0.00 0.00 0.01 0.03 0.04 0.04 0.05 0.05 0.06 0.06 0.06 0.05 0.06 0.11 0.14 0.14 0.16 0.26 0.29 0.28 0.29 0.33 0.36 0.39 0.42 0.43
0.51 0.40 0.30 0.22 0.16 0.12 0.10 0.10 0.09 0.08 0.06 0.05 0.04 0.05 0.07 0.06 0.01 0.00 0.00 0.01 0.03 0.04 0.04 0.03 0.04 0.07 0.07 0.07 0.07 0.12 0.18 0.22 0.12 0.10 0.16 0.22 0.25 0.28 0.29 0.34 0.48 0.59 0.54
0.29 0.21 0.16 0.14 0.11 0.09 0.08 0.08 0.07 0.07 0.06 0.05 0.04 0.05 0.07 0.08 0.02 0.00 0.00 0.01 0.03 0.04 0.06 0.08 0.06 0.06 0.05 0.05 0.06 0.15 0.23 0.25 0.23 0.27 0.35 0.39 0.41 0.48 0.45 0.45 0.59 0.65 0.61
0.16 0.14 0.12 0.10 0.08 0.07 0.07 0.06 0.06 0.06 0.08 0.08 0.08 0.08 0.08 0.04 0.01 0.00 0.00 0.01 0.02 0.04 0.09 0.16 0.16 0.08 0.05 0.05 0.07 0.13 0.19 0.17 0.24 0.40 0.48 0.48 0.49 0.55 0.54 0.49 0.55 0.61 0.66
0.11 0.12 0.11 0.08 0.04 0.05 0.08 0.08 0.07 0.09 0.11 0.11 0.12 0.11 0.09 0.07 0.03 0.01 0.00 0.00 0.01 0.05 0.14 0.18 0.17 0.09 0.07 0.10 0.11 0.15 0.17 0.24 0.38 0.50 0.53 0.51 0.49 0.49 0.49 0.45 0.48 0.54 0.61
0.11 0.12 0.10 0.07 0.06 0.05 0.07 0.08 0.09 0.10 0.09 0.08 0.09 0.10 0.09 0.10 0.06 0.00 0.00 0.00 0.01 0.05 0.12 0.11 0.12 0.13 0.15 0.26 0.24 0.21 0.28 0.42 0.51 0.54 0.56 0.53 0.46 0.41 0.38 0.36 0.40 0.49 0.56
0.18 0.14 0.11 0.10 0.08 0.07 0.08 0.07 0.07 0.09 0.07 0.07 0.09 0.09 0.10 0.11 0.06 0.02 0.02 0.04 0.05 0.08 0.10 0.14 0.22 0.28 0.32 0.39 0.43 0.48 0.50 0.50 0.46 0.51 0.52 0.45 0.34 0.31 0.32 0.33 0.38 0.44 0.52
0.21 0.15 0.11 0.09 0.09 0.10 0.10 0.06 0.04 0.05 0.02 0.03 0.05 0.05 0.06 0.06 0.03 0.02 0.02 0.02 0.03 0.05 0.07 0.19 0.35 0.41 0.47 0.50 0.53 0.57 0.59 0.52 0.46 0.45 0.45 0.42 0.35 0.32 0.31 0.28 0.33 0.37 0.44
0.20 0.14 0.08 0.06 0.07 0.07 0.10 0.11 0.04 0.01 0.00 0.00 0.00 0.01 0.02 0.02 0.02 0.02 0.02 0.02 0.04 0.07 0.13 0.28 0.35 0.39 0.43 0.43 0.43 0.47 0.52 0.51 0.44 0.40 0.40 0.37 0.33 0.32 0.32 0.30 0.31 0.35 0.42
0.14 0.09 0.05 0.04 0.05 0.07 0.09 0.15 0.17 0.08 0.01 0.01 0.01 0.01 0.02 0.02 0.02 0.02 0.03 0.05 0.08 0.15 0.24 0.34 0.35 0.37 0.41 0.38 0.37 0.42 0.46 0.42 0.35 0.33 0.32 0.30 0.27 0.26 0.27 0.29 0.28 0.29 0.30
0.06 0.03 0.03 0.04 0.04 0.05 0.05 0.07 0.12 0.16 0.16 0.10 0.04 0.02 0.02 0.03 0.04 0.05 0.08 0.13 0.22 0.26 0.32 0.32 0.32 0.34 0.37 0.37 0.33 0.32 0.32 0.28 0.24 0.24 0.25 0.22 0.21 0.22 0.23 0.25 0.22 0.19 0.22
0.04 0.04 0.04 0.03 0.02 0.03 0.03 0.03 0.04 0.07 0.14 0.17 0.13 0.06 0.05 0.09 0.11 0.13 0.16 0.21 0.27 0.27 0.26 0.27 0.28 0.28 0.29 0.32 0.28 0.24 0.21 0.18 0.16 0.16 0.17 0.18 0.18 0.18 0.18 0.18 0.15 0.10 0.14
0.03 0.02 0.02 0.01 0.01 0.01 0.02 0.01 0.02 0.04 0.08 0.12 0.12 0.07 0.07 0.16 0.24 0.24 0.21 0.20 0.20 0.21 0.22 0.24 0.22 0.19 0.21 0.21 0.17 0.16 0.16 0.14 0.12 0.11 0.12 0.12 0.12 0.13 0.13 0.11 0.10 0.10 0.11
0.02 0.01 0.00 0.00 0.00 0.01 0.01 0.01 0.01 0.02 0.05 0.07 0.06 0.04 0.09 0.17 0.25 0.25 0.23 0.19 0.17 0.19 0.21 0.20 0.18 0.16 0.15 0.14 0.12 0.10 0.09 0.09 0.09 0.11 0.10 0.08 0.07 0.07 0.06 0.04 0.04 0.04 0.04
0.01 0.00 0.00 0.00 0.00 0.00 0.01 0.01 0.01 0.02 0.03 0.04 0.05 0.05 0.10 0.16 0.22 0.25 0.25 0.20 0.17 0.16 0.17 0.16 0.14 0.13 0.11 0.11 0.10 0.08 0.06 0.06 0.07 0.11 0.10 0.07 0.05 0.04 0.02 0.02 0.02 0.02 0.02
0.00 0.00 0.00 0.00 0.00 0.00 0.00 0.00 0.00 0.01 0.02 0.03 0.04 0.05 0.08 0.15 0.21 0.24 0.22 0.17 0.12 0.11 0.12 0.12 0.11 0.09 0.07 0.06 0.05 0.04 0.03 0.03 0.05 0.08 0.09 0.05 0.03 0.03 0.02 0.02 0.02 0.02 0.01
0.00 0.00 0.00 0.00 0.00 0.00 0.00 0.00 0.00 0.00 0.01 0.02 0.03 0.04 0.05 0.11 0.15 0.16 0.17 0.14 0.10 0.09 0.08 0.07 0.07 0.05 0.04 0.03 0.02 0.01 0.01 0.01 0.02 0.03 0.05 0.04 0.03 0.02 0.02 0.02 0.02 0.02 0.02
0.00 0.00 0.00 0.00 0.00 0.00 0.00 0.00 0.00 0.00 0.01 0.01 0.02 0.03 0.03 0.04 0.06 0.07 0.09 0.10 0.10 0.08 0.06 0.04 0.03 0.02 0.01 0.01 0.01 0.00 0.00 0.01 0.00 0.01 0.02 0.02 0.01 0.01 0.01 0.01 0.01 0.02 0.03
0.00 0.00 0.00 0.00 0.00 0.00 0.00 0.00 0.01 0.01 0.01 0.01 0.02 0.03 0.02 0.02 0.02 0.03 0.04 0.06 0.07 0.06 0.06 0.04 0.02 0.01 0.00 0.00 0.00 0.01 0.01 0.01 0.01 0.01 0.01 0.02 0.01 0.01 0.01 0.01 0.01 0.02 0.02

GEFSGL_prec_meanprecacc_084.txt.gz
Total_Precipitation_Accumulation
1.04 1.03 0.95 0.89 0.84 0.78 0.71 0.68 0.58 0.49 0.44 0.39 0.35 0.32 0.29 0.26 0.23 0.22 0.21 0.19 0.19 0.20 0.19 0.19 0.20 0.19 0.19 0.17 0.17 0.16 0.16 0.18 0.23 0.23 0.21 0.20 0.21 0.22 0.21 0.19 0.19 0.20 0.19
0.61 0.57 0.56 0.53 0.52 0.51 0.48 0.45 0.43 0.40 0.36 0.33 0.30 0.28 0.26 0.24 0.23 0.23 0.22 0.21 0.21 0.21 0.20 0.19 0.19 0.17 0.19 0.18 0.18 0.17 0.17 0.19 0.21 0.21 0.19 0.16 0.16 0.16 0.17 0.18 0.15 0.14 0.15
0.40 0.39 0.39 0.40 0.41 0.42 0.43 0.43 0.41 0.38 0.36 0.33 0.30 0.29 0.27 0.26 0.24 0.23 0.22 0.20 0.18 0.17 0.16 0.15 0.13 0.12 0.12 0.12 0.11 0.10 0.10 0.10 0.13 0.16 0.15 0.13 0.12 0.13 0.18 0.18 0.17 0.21 0.15
0.33 0.31 0.30 0.30 0.32 0.34 0.34 0.34 0.33 0.34 0.35 0.35 0.33 0.30 0.27 0.24 0.20 0.16 0.14 0.12 0.10 0.08 0.07 0.06 0.05 0.05 0.07 0.08 0.08 0.08 0.09 0.11 0.13 0.18 0.17 0.15 0.14 0.14 0.23 0.25 0.21 0.21 0.18
0.37 0.38 0.36 0.33 0.32 0.33 0.33 0.34 0.33 0.32 0.29 0.25 0.21 0.17 0.13 0.10 0.08 0.06 0.04 0.04 0.03 0.02 0.02 0.02 0.02 0.03 0.05 0.06 0.06 0.08 0.13 0.17 0.18 0.21 0.20 0.18 0.16 0.21 0.26 0.26 0.23 0.20 0.16
0.49 0.50 0.50 0.47 0.45 0.42 0.37 0.32 0.27 0.22 0.17 0.12 0.09 0.07 0.05 0.03 0.02 0.02 0.01 0.01 0.02 0.02 0.02 0.03 0.02 0.03 0.02 0.02 0.05 0.10 0.16 0.19 0.20 0.23 0.23 0.25 0.25 0.28 0.30 0.27 0.28 0.29 0.28
0.60 0.58 0.57 0.53 0.46 0.37 0.27 0.19 0.15 0.12 0.09 0.07 0.05 0.03 0.03 0.02 0.00 0.00 0.00 0.01 0.02 0.04 0.04 0.05 0.03 0.02 0.03 0.05 0.06 0.07 0.09 0.10 0.15 0.23 0.30 0.31 0.33 0.36 0.38 0.35 0.37 0.39 0.38
0.60 0.56 0.51 0.42 0.33 0.24 0.17 0.13 0.11 0.09 0.08 0.06 0.04 0.04 0.04 0.02 0.00 0.00 0.00 0.01 0.03 0.04 0.04 0.05 0.05 0.06 0.06 0.06 0.05 0.06 0.11 0.14 0.14 0.16 0.26 0.29 0.28 0.29 0.34 0.37 0.40 0.42 0.43
0.53 0.42 0.32 0.25 0.18 0.14 0.12 0.11 0.10 0.09 0.07 0.05 0.04 0.05 0.07 0.06 0.01 0.00 0.00 0.01 0.03 0.04 0.04 0.03 0.04 0.07 0.07 0.07 0.07 0.12 0.18 0.22 0.12 0.10 0.16 0.22 0.25 0.28 0.29 0.34 0.49 0.61 0.56
0.30 0.22 0.18 0.16 0.14 0.12 0.10 0.10 0.09 0.08 0.07 0.05 0.05 0.05 0.07 0.08 0.02 0.00 0.00 0.01 0.03 0.04 0.06 0.08 0.06 0.06 0.05 0.05 0.06 0.15 0.23 0.25 0.23 0.27 0.35 0.39 0.41 0.48 0.45 0.45 0.59 0.66 0.63
0.17 0.15 0.13 0.12 0.10 0.10 0.10 0.09 0.09 0.08 0.08 0.08 0.08 0.08 0.08 0.04 0.01 0.00 0.00 0.01 0.02 0.04 0.09 0.16 0.16 0.08 0.05 0.05 0.07 0.13 0.19 0.17 0.24 0.40 0.48 0.48 0.49 0.55 0.54 0.49 0.55 0.62 0.67
0.13 0.14 0.14 0.11 0.07 0.08 0.10 0.10 0.09 0.10 0.11 0.11 0.12 0.11 0.09 0.07 0.03 0.01 0.00 0.00 0.01 0.05 0.14 0.18 0.17 0.09 0.07 0.10 0.11 0.15 0.17 0.24 0.38 0.50 0.53 0.51 0.49 0.49 0.49 0.45 0.48 0.54 0.61
0.14 0.15 0.13 0.10 0.09 0.08 0.09 0.10 0.10 0.11 0.10 0.09 0.10 0.10 0.10 0.10 0.07 0.01 0.00 0.00 0.01 0.05 0.12 0.11 0.12 0.13 0.15 0.26 0.24 0.21 0.28 0.42 0.51 0.54 0.56 0.53 0.46 0.41 0.38 0.36 0.40 0.49 0.56
0.20 0.17 0.13 0.12 0.10 0.09 0.10 0.08 0.08 0.10 0.07 0.08 0.10 0.10 0.10 0.11 0.06 0.02 0.02 0.04 0.05 0.08 0.10 0.14 0.22 0.28 0.32 0.39 0.43 0.48 0.50 0.50 0.46 0.51 0.52 0.45 0.34 0.31 0.32 0.33 0.38 0.44 0.52
0.23 0.18 0.13 0.11 0.10 0.11 0.11 0.07 0.05 0.05 0.02 0.03 0.06 0.05 0.06 0.06 0.03 0.02 0.02 0.02 0.03 0.05 0.07 0.19 0.35 0.41 0.47 0.50 0.53 0.57 0.59 0.52 0.46 0.45 0.45 0.42 0.35 0.33 0.31 0.28 0.33 0.37 0.44
0.22 0.16 0.10 0.07 0.08 0.08 0.10 0.11 0.04 0.01 0.00 0.00 0.01 0.01 0.02 0.02 0.02 0.02 0.02 0.02 0.04 0.07 0.13 0.28 0.35 0.39 0.43 0.43 0.43 0.47 0.52 0.51 0.44 0.40 0.40 0.37 0.33 0.32 0.32 0.31 0.31 0.35 0.42
0.15 0.10 0.05 0.04 0.06 0.07 0.09 0.15 0.17 0.08 0.02 0.01 0.01 0.01 0.02 0.02 0.02 0.02 0.03 0.05 0.08 0.15 0.24 0.34 0.35 0.37 0.41 0.38 0.37 0.42 0.46 0.42 0.36 0.33 0.32 0.30 0.28 0.26 0.27 0.29 0.29 0.29 0.30
0.06 0.03 0.03 0.04 0.05 0.05 0.05 0.08 0.12 0.16 0.16 0.10 0.04 0.02 0.02 0.03 0.04 0.05 0.08 0.13 0.22 0.26 0.32 0.32 0.32 0.34 0.37 0.37 0.33 0.32 0.32 0.28 0.24 0.24 0.25 0.22 0.21 0.22 0.23 0.25 0.22 0.19 0.22
0.04 0.04 0.04 0.03 0.02 0.03 0.04 0.04 0.04 0.08 0.14 0.17 0.13 0.06 0.05 0.09 0.11 0.13 0.16 0.21 0.27 0.27 0.26 0.27 0.28 0.28 0.29 0.32 0.28 0.24 0.21 0.18 0.16 0.16 0.17 0.18 0.18 0.18 0.18 0.18 0.15 0.10 0.14
0.03 0.02 0.02 0.01 0.01 0.02 0.02 0.02 0.02 0.04 0.08 0.12 0.12 0.07 0.07 0.16 0.24 0.24 0.21 0.20 0.20 0.21 0.22 0.24 0.22 0.19 0.21 0.21 0.17 0.16 0.16 0.14 0.12 0.12 0.12 0.12 0.12 0.13 0.13 0.11 0.10 0.10 0.11
0.02 0.01 0.00 0.00 0.00 0.01 0.01 0.01 0.01 0.02 0.05 0.08 0.06 0.04 0.09 0.17 0.25 0.25 0.23 0.19 0.17 0.19 0.21 0.20 0.18 0.16 0.15 0.14 0.12 0.10 0.09 0.09 0.09 0.11 0.10 0.08 0.07 0.07 0.06 0.04 0.04 0.04 0.04
0.01 0.00 0.00 0.00 0.00 0.00 0.01 0.01 0.01 0.02 0.03 0.04 0.05 0.05 0.10 0.16 0.22 0.25 0.26 0.21 0.17 0.16 0.17 0.16 0.14 0.13 0.11 0.11 0.10 0.08 0.06 0.06 0.07 0.11 0.10 0.07 0.05 0.04 0.03 0.02 0.02 0.02 0.02
0.00 0.00 0.00 0.00 0.00 0.00 0.00 0.00 0.00 0.01 0.02 0.03 0.04 0.05 0.08 0.15 0.21 0.24 0.22 0.17 0.12 0.11 0.12 0.12 0.11 0.09 0.07 0.06 0.05 0.04 0.03 0.03 0.05 0.08 0.09 0.05 0.03 0.03 0.02 0.02 0.02 0.02 0.01
0.00 0.00 0.00 0.00 0.00 0.00 0.00 0.00 0.00 0.00 0.01 0.02 0.03 0.04 0.05 0.11 0.15 0.16 0.17 0.14 0.10 0.09 0.08 0.07 0.07 0.05 0.04 0.03 0.02 0.01 0.01 0.01 0.02 0.03 0.05 0.04 0.03 0.02 0.02 0.02 0.02 0.02 0.02
0.00 0.00 0.00 0.00 0.00 0.00 0.00 0.00 0.00 0.00 0.01 0.01 0.02 0.03 0.03 0.04 0.06 0.07 0.09 0.10 0.10 0.08 0.06 0.04 0.03 0.02 0.01 0.01 0.01 0.00 0.00 0.01 0.00 0.01 0.02 0.02 0.01 0.01 0.01 0.01 0.01 0.02 0.03
0.00 0.00 0.00 0.00 0.00 0.00 0.00 0.00 0.01 0.01 0.01 0.01 0.02 0.03 0.02 0.02 0.02 0.03 0.04 0.06 0.07 0.06 0.06 0.04 0.02 0.01 0.00 0.00 0.00 0.01 0.01 0.01 0.01 0.01 0.01 0.02 0.01 0.01 0.01 0.01 0.01 0.02 0.02

GEFSGL_prec_meanprecacc_090.txt.gz
Total_Precipitation_Accumulation
1.08 1.08 0.99 0.94 0.87 0.81 0.74 0.71 0.62 0.53 0.49 0.46 0.42 0.39 0.36 0.33 0.30 0.28 0.26 0.24 0.24 0.27 0.28 0.29 0.30 0.28 0.25 0.21 0.20 0.19 0.19 0.20 0.25 0.25 0.22 0.21 0.22 0.22 0.22 0.19 0.19 0.20 0.19
0.66 0.62 0.60 0.57 0.55 0.54 0.51 0.48 0.48 0.45 0.42 0.39 0.36 0.33 0.31 0.30 0.29 0.28 0.26 0.24 0.24 0.25 0.25 0.24 0.23 0.22 0.21 0.20 0.19 0.18 0.18 0.20 0.22 0.23 0.20 0.17 0.16 0.16 0.17 0.19 0.15 0.14 0.15
0.46 0.45 0.43 0.44 0.45 0.46 0.46 0.45 0.45 0.44 0.41 0.38 0.34 0.33 0.31 0.29 0.27 0.26 0.25 0.23 0.21 0.19 0.18 0.17 0.15 0.13 0.13 0.12 0.11 0.10 0.10 0.10 0.14 0.17 0.16 0.14 0.12 0.13 0.18 0.19 0.17 0.21 0.15
0.39 0.38 0.35 0.33 0.35 0.38 0.38 0.37 0.36 0.37 0.39 0.39 0.37 0.34 0.30 0.26 0.21 0.18 0.15 0.13 0.11 0.09 0.08 0.06 0.05 0.05 0.07 0.09 0.08 0.08 0.09 0.11 0.13 0.18 0.18 0.16 0.15 0.14 0.23 0.25 0.21 0.21 0.18
0.43 0.44 0.41 0.36 0.35 0.37 0.38 0.39 0.36 0.34 0.31 0.27 0.23 0.19 0.15 0.11 0.09 0.06 0.05 0.04 0.03 0.02 0.02 0.02 0.02 0.03 0.05 0.06 0.06 0.09 0.13 0.17 0.19 0.21 0.20 0.18 0.16 0.21 0.26 0.26 0.23 0.20 0.16
0.54 0.54 0.54 0.52 0.50 0.46 0.41 0.37 0.30 0.25 0.19 0.14 0.10 0.08 0.06 0.04 0.03 0.02 0.01 0.01 0.02 0.02 0.02 0.03 0.02 0.03 0.02 0.02 0.05 0.10 0.16 0.19 0.20 0.23 0.23 0.25 0.25 0.28 0.30 0.27 0.28 0.29 0.28
0.64 0.62 0.60 0.56 0.50 0.41 0.30 0.24 0.19 0.15 0.12 0.09 0.06 0.04 0.04 0.02 0.01 0.00 0.00 0.01 0.02 0.04 0.04 0.05 0.03 0.02 0.03 0.05 0.06 0.07 0.09 0.10 0.15 0.23 0.30 0.31 0.33 0.36 0.38 0.35 0.37 0.39 0.38
0.65 0.60 0.54 0.44 0.35 0.27 0.21 0.18 0.14 0.12 0.10 0.07 0.05 0.05 0.05 0.02 0.00 0.00 0.00 0.01 0.03 0.04 0.04 0.05 0.05 0.06 0.06 0.06 0.05 0.06 0.11 0.14 0.14 0.16 0.26 0.29 0.28 0.29 0.34 0.37 0.40 0.42 0.43
0.57 0.46 0.37 0.28 0.21 0.15 0.14 0.14 0.13 0.11 0.08 0.07 0.06 0.06 0.07 0.06 0.01 0.00 0.00 0.01 0.03 0.04 0.04 0.03 0.04 0.07 0.07 0.07 0.07 0.12 0.18 0.22 0.12 0.10 0.16 0.22 0.25 0.28 0.29 0.34 0.49 0.61 0.56
0.34 0.25 0.21 0.19 0.17 0.14 0.12 0.12 0.11 0.10 0.09 0.07 0.06 0.06 0.08 0.08 0.02 0.00 0.00 0.01 0.03 0.04 0.06 0.08 0.06 0.06 0.05 0.05 0.06 0.15 0.23 0.25 0.23 0.27 0.35 0.39 0.41 0.48 0.45 0.45 0.59 0.66 0.63
0.21 0.18 0.16 0.14 0.11 0.12 0.12 0.11 0.10 0.10 0.11 0.10 0.09 0.09 0.09 0.05 0.02 0.00 0.00 0.01 0.02 0.04 0.09 0.16 0.16 0.08 0.05 0.05 0.07 0.13 0.19 0.17 0.24 0.40 0.48 0.48 0.49 0.55 0.54 0.49 0.55 0.62 0.68
0.17 0.17 0.16 0.13 0.09 0.09 0.12 0.12 0.11 0.12 0.14 0.14 0.14 0.12 0.10 0.07 0.03 0.01 0.00 0.00 0.01 0.05 0.14 0.18 0.17 0.09 0.07 0.10 0.11 0.15 0.17 0.24 0.38 0.50 0.53 0.51 0.49 0.49 0.49 0.45 0.48 0.54 0.62
0.19 0.19 0.17 0.13 0.11 0.10 0.11 0.12 0.12 0.13 0.12 0.10 0.11 0.12 0.11 0.10 0.07 0.01 0.00 0.00 0.01 0.05 0.12 0.11 0.12 0.13 0.15 0.26 0.24 0.21 0.28 0.42 0.51 0.54 0.56 0.53 0.46 0.41 0.38 0.36 0.40 0.49 0.56
0.25 0.21 0.16 0.14 0.12 0.10 0.11 0.09 0.09 0.11 0.08 0.08 0.10 0.10 0.11 0.11 0.06 0.02 0.02 0.04 0.05 0.08 0.10 0.14 0.22 0.28 0.32 0.39 0.43 0.48 0.50 0.50 0.46 0.51 0.52 0.45 0.34 0.31 0.32 0.33 0.38 0.44 0.52
0.27 0.20 0.15 0.12 0.11 0.12 0.11 0.07 0.05 0.06 0.02 0.04 0.06 0.06 0.06 0.06 0.03 0.02 0.02 0.02 0.03 0.05 0.07 0.19 0.35 0.41 0.47 0.50 0.53 0.57 0.59 0.52 0.46 0.45 0.45 0.42 0.35 0.33 0.31 0.28 0.33 0.37 0.44
0.24 0.18 0.11 0.08 0.08 0.08 0.11 0.11 0.05 0.01 0.01 0.01 0.01 0.01 0.02 0.03 0.02 0.02 0.02 0.02 0.04 0.07 0.13 0.28 0.35 0.39 0.43 0.43 0.43 0.47 0.52 0.51 0.44 0.40 0.40 0.37 0.33 0.32 0.32 0.31 0.31 0.35 0.42
0.16 0.11 0.06 0.06 0.06 0.07 0.09 0.15 0.17 0.08 0.02 0.01 0.01 0.01 0.02 0.02 0.02 0.02 0.03 0.05 0.08 0.15 0.24 0.34 0.35 0.37 0.41 0.38 0.37 0.42 0.46 0.42 0.36 0.33 0.32 0.30 0.28 0.26 0.27 0.29 0.29 0.29 0.30
0.07 0.04 0.03 0.05 0.05 0.05 0.05 0.08 0.12 0.16 0.16 0.10 0.04 0.02 0.02 0.03 0.04 0.05 0.08 0.13 0.22 0.26 0.32 0.32 0.32 0.34 0.37 0.37 0.33 0.32 0.32 0.28 0.24 0.24 0.25 0.22 0.21 0.22 0.23 0.25 0.22 0.19 0.22
0.04 0.04 0.04 0.03 0.02 0.03 0.04 0.04 0.04 0.08 0.14 0.17 0.13 0.06 0.05 0.09 0.11 0.13 0.16 0.21 0.27 0.27 0.26 0.27 0.28 0.28 0.29 0.32 0.28 0.24 0.21 0.18 0.16 0.16 0.17 0.18 0.18 0.18 0.19 0.18 0.15 0.10 0.14
0.03 0.03 0.03 0.02 0.01 0.02 0.02 0.02 0.02 0.04 0.08 0.12 0.12 0.07 0.07 0.16 0.24 0.24 0.21 0.20 0.20 0.21 0.22 0.24 0.22 0.19 0.21 0.21 0.17 0.16 0.16 0.14 0.12 0.12 0.12 0.12 0.12 0.13 0.13 0.11 0.10 0.10 0.11
0.02 0.01 0.00 0.00 0.00 0.01 0.01 0.01 0.01 0.02 0.05 0.08 0.06 0.04 0.09 0.17 0.25 0.25 0.23 0.19 0.17 0.19 0.21 0.20 0.18 0.16 0.15 0.14 0.12 0.10 0.09 0.09 0.09 0.11 0.10 0.08 0.07 0.07 0.06 0.04 0.04 0.04 0.04
0.01 0.01 0.00 0.00 0.00 0.00 0.01 0.01 0.01 0.02 0.03 0.04 0.05 0.05 0.10 0.16 0.22 0.25 0.26 0.21 0.17 0.16 0.17 0.16 0.14 0.13 0.11 0.11 0.10 0.08 0.06 0.06 0.07 0.11 0.10 0.07 0.05 0.04 0.03 0.02 0.02 0.02 0.02
0.00 0.00 0.00 0.00 0.00 0.00 0.00 0.00 0.00 0.01 0.02 0.03 0.04 0.05 0.08 0.15 0.21 0.24 0.22 0.17 0.12 0.11 0.12 0.12 0.11 0.09 0.07 0.06 0.05 0.04 0.03 0.03 0.05 0.08 0.09 0.05 0.03 0.03 0.02 0.02 0.02 0.02 0.01
0.00 0.00 0.00 0.00 0.00 0.00 0.00 0.00 0.00 0.00 0.01 0.02 0.03 0.04 0.05 0.11 0.15 0.16 0.17 0.14 0.10 0.09 0.08 0.07 0.07 0.05 0.04 0.03 0.02 0.01 0.01 0.01 0.02 0.03 0.05 0.04 0.03 0.02 0.02 0.02 0.02 0.02 0.02
0.00 0.00 0.00 0.00 0.00 0.00 0.00 0.00 0.00 0.00 0.01 0.01 0.02 0.03 0.03 0.04 0.06 0.07 0.09 0.10 0.10 0.08 0.06 0.04 0.03 0.02 0.01 0.01 0.01 0.00 0.00 0.01 0.00 0.01 0.02 0.02 0.01 0.01 0.01 0.01 0.01 0.02 0.03
0.00 0.00 0.00 0.00 0.00 0.00 0.00 0.00 0.01 0.01 0.01 0.01 0.02 0.03 0.02 0.02 0.02 0.03 0.04 0.06 0.07 0.06 0.06 0.04 0.02 0.01 0.00 0.00 0.00 0.01 0.01 0.01 0.01 0.01 0.01 0.02 0.01 0.01 0.01 0.01 0.01 0.02 0.02

GEFSGL_prec_meanprecacc_096.txt.gz
Total_Precipitation_Accumulation
1.10 1.10 1.01 0.96 0.90 0.84 0.77 0.75 0.65 0.56 0.52 0.49 0.44 0.41 0.40 0.37 0.36 0.34 0.34 0.31 0.33 0.39 0.44 0.47 0.51 0.51 0.50 0.48 0.46 0.44 0.43 0.42 0.43 0.40 0.34 0.29 0.27 0.25 0.23 0.21 0.20 0.20 0.19
0.68 0.64 0.62 0.59 0.57 0.56 0.54 0.52 0.52 0.48 0.44 0.42 0.39 0.37 0.36 0.37 0.36 0.34 0.32 0.32 0.31 0.33 0.35 0.37 0.39 0.39 0.40 0.39 0.37 0.36 0.36 0.36 0.35 0.34 0.29 0.23 0.20 0.18 0.19 0.20 0.16 0.14 0.16
0.48 0.47 0.44 0.45 0.47 0.48 0.49 0.48 0.47 0.45 0.42 0.40 0.37 0.37 0.37 0.36 0.35 0.33 0.32 0.30 0.28 0.27 0.26 0.25 0.25 0.24 0.24 0.23 0.21 0.19 0.19 0.18 0.20 0.22 0.21 0.17 0.15 0.15 0.19 0.19 0.18 0.22 0.15
0.44 0.42 0.38 0.36 0.37 0.39 0.40 0.40 0.39 0.39 0.42 0.43 0.41 0.40 0.36 0.32 0.28 0.25 0.23 0.22 0.20 0.19 0.16 0.14 0.13 0.13 0.14 0.15 0.14 0.13 0.13 0.14 0.16 0.20 0.20 0.17 0.16 0.15 0.24 0.26 0.22 0.22 0.18
0.47 0.48 0.45 0.40 0.37 0.38 0.39 0.43 0.42 0.37 0.34 0.32 0.29 0.27 0.23 0.18 0.15 0.13 0.12 0.12 0.11 0.10 0.08 0.07 0.07 0.08 0.09 0.09 0.09 0.11 0.15 0.19 0.20 0.22 0.21 0.18 0.17 0.22 0.26 0.26 0.23 0.20 0.16
0.56 0.57 0.57 0.55 0.52 0.48 0.43 0.39 0.34 0.30 0.24 0.19 0.14 0.14 0.13 0.11 0.11 0.10 0.09 0.08 0.07 0.07 0.06 0.05 0.05 0.05 0.04 0.04 0.06 0.11 0.17 0.20 0.21 0.23 0.23 0.25 0.25 0.28 0.30 0.28 0.28 0.29 0.29
0.66 0.64 0.63 0.58 0.52 0.44 0.33 0.27 0.22 0.19 0.18 0.15 0.11 0.08 0.08 0.08 0.08 0.07 0.06 0.06 0.06 0.06 0.06 0.06 0.04 0.02 0.04 0.06 0.06 0.08 0.09 0.10 0.15 0.24 0.30 0.31 0.33 0.36 0.38 0.36 0.37 0.40 0.38
0.67 0.63 0.56 0.46 0.38 0.29 0.24 0.21 0.18 0.16 0.17 0.16 0.13 0.11 0.09 0.06 0.04 0.04 0.03 0.03 0.05 0.05 0.05 0.05 0.06 0.06 0.06 0.06 0.05 0.06 0.11 0.14 0.14 0.16 0.26 0.29 0.28 0.29 0.34 0.37 0.41 0.43 0.44
0.59 0.49 0.39 0.31 0.24 0.19 0.17 0.17 0.16 0.14 0.13 0.12 0.12 0.12 0.13 0.10 0.04 0.03 0.02 0.03 0.05 0.04 0.04 0.04 0.04 0.07 0.07 0.07 0.07 0.12 0.18 0.22 0.12 0.10 0.16 0.22 0.25 0.28 0.29 0.34 0.49 0.62 0.57
0.36 0.29 0.25 0.23 0.20 0.18 0.16 0.15 0.14 0.13 0.12 0.09 0.08 0.10 0.11 0.10 0.03 0.02 0.02 0.03 0.04 0.04 0.06 0.08 0.06 0.06 0.05 0.05 0.07 0.15 0.23 0.25 0.23 0.28 0.36 0.39 0.41 0.49 0.45 0.46 0.59 0.66 0.64
0.24 0.21 0.19 0.17 0.14 0.15 0.16 0.14 0.14 0.13 0.14 0.13 0.11 0.10 0.10 0.06 0.03 0.01 0.01 0.02 0.03 0.04 0.09 0.16 0.16 0.08 0.05 0.05 0.07 0.13 0.19 0.17 0.25 0.40 0.48 0.49 0.50 0.56 0.54 0.49 0.55 0.63 0.69
0.20 0.20 0.19 0.16 0.12 0.13 0.17 0.16 0.14 0.15 0.18 0.17 0.17 0.15 0.12 0.08 0.03 0.01 0.00 0.00 0.01 0.05 0.14 0.18 0.17 0.09 0.07 0.10 0.11 0.15 0.17 0.24 0.38 0.50 0.53 0.52 0.49 0.50 0.49 0.46 0.49 0.54 0.62
0.22 0.23 0.20 0.16 0.15 0.16 0.17 0.17 0.16 0.17 0.15 0.13 0.14 0.15 0.13 0.12 0.07 0.01 0.00 0.00 0.01 0.05 0.12 0.11 0.12 0.13 0.15 0.26 0.24 0.21 0.28 0.42 0.51 0.55 0.56 0.54 0.46 0.41 0.38 0.37 0.40 0.49 0.56
0.29 0.25 0.19 0.18 0.17 0.17 0.16 0.13 0.13 0.14 0.11 0.11 0.13 0.13 0.13 0.13 0.07 0.03 0.02 0.04 0.05 0.08 0.10 0.14 0.22 0.28 0.32 0.39 0.43 0.48 0.50 0.50 0.46 0.52 0.53 0.45 0.35 0.31 0.33 0.34 0.39 0.45 0.53
0.32 0.25 0.18 0.16 0.16 0.16 0.15 0.10 0.07 0.07 0.04 0.06 0.09 0.08 0.08 0.08 0.04 0.02 0.02 0.02 0.04 0.05 0.08 0.19 0.35 0.41 0.47 0.51 0.54 0.57 0.59 0.52 0.46 0.46 0.46 0.42 0.36 0.33 0.31 0.28 0.33 0.38 0.45
0.30 0.21 0.14 0.11 0.11 0.10 0.12 0.12 0.05 0.02 0.01 0.01 0.02 0.02 0.03 0.03 0.03 0.02 0.02 0.03 0.04 0.07 0.13 0.28 0.35 0.39 0.43 0.44 0.44 0.48 0.52 0.51 0.44 0.40 0.40 0.37 0.34 0.33 0.33 0.31 0.31 0.36 0.43
0.20 0.14 0.09 0.09 0.10 0.09 0.10 0.16 0.18 0.08 0.02 0.01 0.01 0.02 0.03 0.03 0.02 0.03 0.03 0.05 0.09 0.15 0.25 0.34 0.35 0.38 0.41 0.38 0.37 0.42 0.46 0.42 0.36 0.33 0.32 0.30 0.28 0.27 0.28 0.29 0.29 0.29 0.30
0.09 0.05 0.04 0.06 0.06 0.07 0.07 0.09 0.13 0.17 0.17 0.11 0.05 0.02 0.03 0.04 0.04 0.06 0.08 0.13 0.22 0.26 0.32 0.32 0.32 0.34 0.38 0.37 0.33 0.32 0.32 0.28 0.24 0.24 0.25 0.22 0.21 0.23 0.24 0.26 0.23 0.20 0.22
0.05 0.05 0.05 0.04 0.03 0.03 0.04 0.04 0.04 0.08 0.14 0.18 0.14 0.07 0.05 0.09 0.11 0.13 0.16 0.21 0.27 0.28 0.26 0.27 0.28 0.28 0.30 0.32 0.28 0.24 0.21 0.18 0.17 0.17 0.17 0.18 0.18 0.18 0.19 0.18 0.15 0.10 0.14
0.04 0.03 0.03 0.03 0.02 0.02 0.02 0.02 0.02 0.04 0.08 0.12 0.12 0.07 0.07 0.16 0.24 0.24 0.21 0.21 0.20 0.21 0.22 0.24 0.22 0.19 0.22 0.21 0.17 0.16 0.16 0.14 0.12 0.12 0.12 0.12 0.12 0.13 0.13 0.11 0.10 0.10 0.11
0.02 0.01 0.00 0.01 0.01 0.01 0.01 0.01 0.02 0.02 0.05 0.08 0.06 0.04 0.09 0.17 0.25 0.25 0.23 0.19 0.17 0.19 0.21 0.20 0.18 0.16 0.15 0.14 0.12 0.10 0.09 0.09 0.09 0.11 0.10 0.08 0.07 0.07 0.06 0.04 0.04 0.04 0.04
0.01 0.01 0.00 0.00 0.00 0.00 0.01 0.01 0.01 0.02 0.03 0.04 0.05 0.05 0.10 0.16 0.22 0.25 0.26 0.21 0.17 0.16 0.17 0.16 0.14 0.13 0.11 0.11 0.10 0.08 0.06 0.06 0.07 0.11 0.10 0.07 0.05 0.04 0.03 0.02 0.02 0.02 0.02
0.00 0.00 0.00 0.00 0.00 0.00 0.00 0.00 0.00 0.01 0.02 0.03 0.04 0.05 0.08 0.15 0.21 0.24 0.22 0.17 0.12 0.11 0.12 0.12 0.11 0.09 0.07 0.06 0.05 0.04 0.03 0.03 0.05 0.08 0.09 0.05 0.03 0.03 0.02 0.02 0.02 0.02 0.01
0.00 0.00 0.00 0.00 0.00 0.00 0.00 0.00 0.00 0.00 0.01 0.02 0.03 0.04 0.05 0.11 0.15 0.17 0.17 0.14 0.10 0.09 0.08 0.07 0.07 0.05 0.04 0.03 0.02 0.01 0.01 0.01 0.02 0.03 0.05 0.04 0.03 0.02 0.02 0.02 0.02 0.02 0.02
0.00 0.00 0.00 0.00 0.00 0.00 0.00 0.00 0.00 0.00 0.01 0.01 0.02 0.03 0.03 0.04 0.06 0.07 0.09 0.10 0.10 0.08 0.06 0.04 0.03 0.02 0.01 0.01 0.01 0.00 0.00 0.01 0.00 0.01 0.02 0.02 0.01 0.01 0.01 0.01 0.01 0.02 0.03
0.00 0.00 0.00 0.00 0.00 0.00 0.00 0.00 0.01 0.01 0.01 0.01 0.02 0.03 0.02 0.02 0.02 0.03 0.04 0.06 0.07 0.06 0.06 0.04 0.02 0.01 0.00 0.00 0.00 0.01 0.01 0.01 0.01 0.01 0.01 0.02 0.01 0.01 0.01 0.01 0.01 0.02 0.02